カタログに戻る

SL-12 R/B(2)

運用中GEO
NORAD 12850·ROCKET BODY·🇷🇺 Russia

打ち上げ Jul 30, 1981 から Baikonur Cosmodrome

Loading…

TLE

最新Source: Space-Track

元期: Sep 14, 2026, 15:50 UTC

1 12850U 81069F   26257.66029473 -.00000034  00000-0  00000-0 0  9997
2 12850   7.9430 299.1041 0020652 193.8838 168.6125  0.97699102117104

AllMySatでSL-12 R/B(2)をリアルタイム追跡

Download on the App Store